Zurück zum Katalog

STARLINK-38251

AktivKommunikationSSO
NORAD 100229·PAYLOAD·🇺🇸 United States

Gestartet Aug 4, 2026 von Vandenberg Space Force Base

Loading…

Nächste Überflüge (nächste 24 Stunden)

TLE

AktuellSource: Space-Track

Epoche: Sep 14, 2026, 21:42 UTC

1 A0229U 26177S   26257.90452444 -.00288286  00000-0 -54608-2 0  9991
2 A0229  97.2840 308.7915 0002036  92.8040 267.3444 15.49364105  7579

Verfolge STARLINK-38251 in Echtzeit mit AllMySat

Download on the App Store